Location: Rovella
(40.7000°N, 14.9667°E)
Time: 16:51:37
(UTC+00:00)

Daily predictions for brighter satellites

Satellite Brightness Start Highest point End
(mag) Time Altitude Azimuth Time Altitude Azimuth Time Altitude Azimuth
USA 186 1.3 18:38:30 10° S 18:41:18 86° WSW 18:43:55 10° NNW
Cosmos 1076 Rocket 3.7 18:39:12 10° S 18:43:33 83° W 18:47:57 10° N
SL-16 R/B 2.6 18:40:05 10° NNW 18:45:38 51° ENE 18:51:07 10° SE
Nadezhda 4 Rocket 4.0 18:41:28 10° S 18:47:39 81° E 18:53:56 10° N
Cosmos 1680 Rocket 3.7 18:44:27 10° S 18:49:33 52° ESE 18:54:39 10° NNE
Cosmos 2112 Rocket 4.3 18:46:22 10° S 18:51:23 46° ESE 18:56:23 10° NNE
Cosmos 1151 Rocket 4.4 18:52:34 10° NNE 18:56:05 23° ENE 18:59:15 12° SE
BREEZE-M DEB (TANK) 3.1 18:54:48 10° WSW 18:57:45 75° NNW 19:06:40 10° ENE
SL-19 R/B 4.5 18:54:15 10° SSE 18:58:10 79° ENE 19:02:41 10° NNW
ISS -1.2 18:58:01 10° W 19:00:05 15° SW 19:02:09 10° SSW
Cosmos 1271 Rocket 3.1 18:58:02 10° N 19:01:57 50° ENE 19:05:49 10° SSE
Cosmos 1633 4.4 19:00:06 10° SW 19:03:24 34° WNW 19:06:43 10° N
ATLAS 3B R/B 3.7 18:56:55 10° NW 19:03:46 49° WSW 19:10:50 10° S
COSMOS 2455 3.7 19:01:45 10° SSE 19:06:42 28° ESE 19:11:40 10° NE
ERS-2 2.4 19:05:31 10° NNE 19:09:01 45° E 19:12:30 10° S
GEOS 3 Rocket 3.7 19:06:52 10° NE 19:12:05 84° NW 19:17:11 10° SW
Cosmos 332 Rocket 4.3 19:07:16 10° NNW 19:12:07 61° WSW 19:16:56 10° S
Meteor 2-3 Rocket 3.7 19:06:58 10° S 19:12:39 85° E 19:18:26 10° N
NOSS 2-1 (C) 3.2 19:12:26 10° SW 19:15:48 66° NW 19:19:04 10° NNE
Ariane Rocket 3.0 19:11:22 10° SSE 19:16:26 77° ENE 19:21:30 10° N
Cosmos 220 Rocket 4.2 19:14:15 10° N 19:18:34 54° ENE 19:21:43 18° SE
Cosmos 2360 Rocket 2.8 19:13:35 10° N 19:18:56 42° ENE 19:22:50 18° SE
Helios 1A Rocket 3.7 19:15:20 10° S 19:19:16 50° W 19:23:15 10° NNW
SAR-Lupe-4 4.0 19:16:15 10° N 19:19:49 64° WNW 19:23:20 10° SSW
Cosmos 1328 Rocket 4.4 19:18:17 10° N 19:22:19 33° ENE 19:24:39 20° SE
SPOT 3 Rocket 3.9 19:19:12 16° SE 19:23:10 47° ENE 19:28:10 10° N
NOSS 2-1 (D) 3.7 19:20:19 10° SW 19:23:37 52° NW 19:26:51 10° NNE
Cosmos 1766 Rocket 3.7 19:20:05 10° S 19:24:20 52° E 19:28:34 10° NNE
Cosmos 2151 4.1 19:22:22 10° SSW 19:26:27 45° W 19:30:35 10° N
Cosmos 1624 Rocket 4.2 19:25:57 10° N 19:31:06 55° ENE 19:34:25 21° SE
Resurs 01 Rocket 1.6 19:27:41 17° SSE 19:31:06 70° ENE 19:35:33 10° N
Cosmos 1553 Rocket 4.3 19:28:17 10° N 19:34:07 46° ENE 19:37:59 21° SE
Gbstr 26 Del rocket 3.8 19:33:40 10° WNW 19:37:05 35° SW 19:39:12 20° S
Landsat 7 3.7 19:38:02 19° SSE 19:41:31 82° ENE 19:46:17 10° N
ERS-1 Rocket 4.3 19:40:14 19° E 19:42:07 24° ENE 19:46:05 10° NNE
Cosmos 1862 3.5 19:40:34 26° SSE 19:42:25 47° E 19:46:14 10° NNE
Cosmos 1812 3.0 19:39:00 10° N 19:42:44 46° E 19:44:02 32° SE
Cosmos 1933 4.4 19:39:05 10° NNW 19:42:54 43° W 19:46:41 10° SSW
Cosmos 1782 2.9 19:40:55 10° NNW 19:44:55 74° W 19:47:38 19° S
Cosmos 1833 4.2 19:40:22 10° SSW 19:46:07 82° ESE 19:51:56 10° NNE
SL-27 R/B 2.9 19:43:34 10° SSW 19:47:07 65° WNW 19:50:43 10° NNE
SPOT 5 3.8 19:52:45 24° E 19:53:44 26° ENE 19:57:29 10° N
Cosmos 2333 Rocket 2.9 19:48:49 10° N 19:54:07 40° ENE 19:56:33 27° ESE
BREEZE-M DEB (TANK) 2.8 19:51:05 10° WNW 19:54:22 77° SSW 19:58:28 26° SE
ARIANE 5 R/B 3.5 19:54:19 29° E 19:55:27 34° ENE 19:59:26 10° N
Cosmos 2237 Rocket 4.4 19:53:43 10° NNE 19:55:48 12° NE 19:57:52 10° ENE
Cosmos 2322 Rocket 2.7 19:50:38 10° NNW 19:56:08 57° WSW 20:00:04 19° S
JB-3 4.3 19:52:54 10° NNE 19:56:56 61° E 19:58:22 36° SSE
Cosmos 2322 4.4 19:51:48 10° N 19:57:11 40° ENE 19:59:33 28° ESE
BREEZE-M R/B 2.7 19:54:32 10° SW 20:00:27 57° SSE 20:02:47 19° ENE
Cosmos 1452 Rocket 4.4 19:57:44 10° N 20:02:33 35° ENE 20:04:09 29° E
Cosmos 1500 Rocket 4.1 20:03:07 36° ESE 20:03:28 36° E 20:07:33 10° NNE
BREEZE-M DEB (TANK) 4.2 20:03:03 10° WNW 20:06:59 71° SSW 20:12:58 27° SE
Cosmos 2219 Rocket 2.8 20:03:00 10° N 20:08:18 42° ENE 20:10:11 32° ESE
S3M 4.2 20:02:25 10° N 20:08:45 59° E 20:11:31 33° SE
Meteor 2-16 Rocket 4.5 20:06:02 28° SSE 20:09:13 60° E 20:15:11 10° NNE
Cosmos 2056 Rocket 3.8 20:07:39 10° NNW 20:12:54 63° WSW 20:15:29 29° S
ATLAS 5 CENTAUR R/B 3.2 20:09:13 10° NNW 20:14:27 38° NE 20:17:08 27° E
Spot 2 Rocket 3.5 20:14:03 41° SE 20:15:49 71° ENE 20:20:55 10° N
SPOT 1/Viking Rocket 3.7 20:14:27 30° S 20:17:04 72° WSW 20:22:19 10° NNW
Meteor 1-27 Rocket 4.2 20:11:56 10° N 20:17:27 46° ENE 20:18:59 38° ESE
USA 245 3.4 20:16:53 47° S 20:18:03 83° WSW 20:21:46 10° NNW
Cosmos 1408 Rocket 3.5 20:17:00 33° SSW 20:18:54 78° W 20:23:14 10° N
Cosmos 1655 Rocket 4.0 20:19:07 30° S 20:22:29 73° E 20:28:53 10° N
Cosmos 1743 Rocket 3.5 20:25:39 62° ESE 20:26:00 64° E 20:30:22 10° NNE
CZ-2C R/B 4.2 20:23:11 10° N 20:27:34 56° WNW 20:30:27 20° SW
SL-16 R/B 4.1 20:25:03 10° NW 20:29:18 22° W 20:33:33 10° SSW
CARTOSAT-1 3.5 20:29:08 60° S 20:29:53 81° WSW 20:34:13 10° NNW
GP-B 4.4 20:26:42 10° NNW 20:30:48 37° W 20:33:39 17° SW
Cosmos 494 Rocket 4.0 20:31:20 51° ESE 20:31:25 51° ESE 20:36:24 10° NNE
Lacrosse 5 1.7 20:33:37 56° S 20:34:22 64° SE 20:39:23 10° NE
NOSS 3-1 (C) 4.1 20:29:18 10° NW 20:37:04 84° WSW 20:40:55 38° SSE
APEX 4.3 20:38:57 52° SE 20:39:51 58° ESE 20:46:19 10° NNE
Cosmos 2333 4.2 20:34:49 10° NNW 20:40:26 75° WSW 20:41:51 51° S
Meteor 1-10 Rocket 4.5 20:39:26 10° NNW 20:44:55 63° W 20:46:47 40° SSW
COSMOS 2487 3.6 20:45:40 39° WNW 20:45:43 39° WNW 20:48:56 10° N
IRIDIUM 114 4.5 20:42:51 10° N 20:47:58 53° E 20:48:03 53° E
Cosmos 468 4.4 20:47:12 51° SSW 20:48:35 87° WNW 20:53:51 10° NNE
Cosmos 1515 Rocket 4.3 20:46:50 10° NNW 20:51:02 45° W 20:51:45 41° WSW
Meteor 1-25 Rocket 4.4 20:51:22 51° E 20:51:22 51° E 20:56:41 10° NNE
COSMOS 2455 3.7 20:46:32 10° SW 20:52:19 48° NW 20:58:09 10° NNE
COSMOS 2428 2.6 20:47:21 10° NNW 20:53:05 78° ENE 20:53:52 65° SE
Terra 1.7 20:54:30 81° E 20:54:35 82° ENE 20:59:22 10° N
USA 229 DEB 3.9 20:47:46 10° NNW 20:55:13 82° NE 20:57:36 49° SE
USA 229 3.9 20:47:52 10° NNW 20:55:19 82° NE 20:57:42 49° SE
IRIDIUM 103 4.3 20:51:57 10° N 20:57:09 65° E 20:57:11 65° E
Cosmos 1048 Rocket 4.2 20:59:48 42° SW 21:01:24 64° WNW 21:06:30 10° NNE
Cosmos 2360 Rocket 3.7 20:58:03 10° NW 21:02:41 27° WSW 21:04:36 22° SW
Cosmos 2084 Rocket 4.3 20:58:50 10° NNW 21:02:26 42° NNE 21:02:26 42° NNE
Cosmos 2219 4.5 21:06:24 27° ENE 21:06:24 27° ENE 21:09:39 10° NE
IRIDIUM 106 4.2 21:10:10 10° N 21:15:23 85° W 21:15:23 85° W
NOSS 3-1 (A) 4.1 21:08:07 10° NW 21:15:54 79° WSW 21:18:16 53° SSE
H-2A R/B 4.3 21:14:02 10° NNE 21:17:03 46° N 21:17:03 46° N
Meteor 1-19 Rocket 4.4 21:13:25 10° N 21:18:30 55° ENE 21:18:30 55° ENE
Cosmos 1980 4.1 21:13:59 10° NNW 21:19:29 49° ENE 21:19:35 49° ENE
ERS-1 Rocket 3.8 21:20:14 39° WSW 21:20:40 40° W 21:25:23 10° NNW
Gblst 52 Del rocket 4.4 21:18:06 10° NW 21:24:17 82° SW 21:24:54 74° SSE
Cosmos 2228 Rocket 4.0 21:23:11 10° NNW 21:26:53 44° WNW 21:26:53 44° WNW
Cosmos 2297 Rocket 2.5 21:31:26 54° NE 21:31:26 54° NE 21:35:59 10° NNE
SPOT 5 4.3 21:31:58 26° W 21:31:58 26° W 21:35:32 10° NW
Cosmos 2285 Rocket 4.3 21:26:16 10° NNW 21:32:20 53° WSW 21:33:03 50° SW
BREEZE-M DEB (TANK) 4.3 21:32:37 10° NW 21:34:36 23° NW 21:34:36 23° NW
Cosmos 2315 Rocket 4.4 21:30:24 10° NNW 21:36:34 54° W 21:37:37 49° SW
NOSS 0 Rocket 3.8 21:31:34 10° NNW 21:37:48 83° WSW 21:37:53 83° SW
Cosmos 2333 Rocket 3.5 21:33:25 10° NW 21:38:11 29° WSW 21:38:33 29° WSW
Cosmos 2237 Rocket 2.3 21:35:16 10° NNW 21:40:34 67° NE 21:40:34 67° NE
Cosmos 2227 Rocket 2.8 21:44:50 46° NE 21:44:50 46° NE 21:48:56 10° NNE
Cosmos 1745 Rocket 4.3 21:50:35 56° ENE 21:50:35 56° ENE 21:56:09 10° NNE
Meteor 1-14 Rocket 4.5 21:51:39 60° NE 21:51:39 60° NE 21:56:23 10° NNE
Cosmos 2219 Rocket 3.6 21:47:23 10° NW 21:51:54 27° W 21:51:54 27° W
ATLAS 5 CENTAUR R/B 3.1 21:53:39 10° NW 21:58:38 42° WSW 21:58:38 42° WSW
BREEZE-M DEB (TANK) 4.5 21:44:21 10° WSW 21:59:20 74° NNW 22:02:13 27° ENE
Nadezhda 1 Rocket 4.1 22:00:39 10° N 22:06:40 71° NE 22:06:40 71° NE
SL-16 R/B 3.0 22:08:02 10° NNW 22:12:56 43° NE 22:12:56 43° NE
Lacrosse 5 3.7 22:13:19 10° W 22:17:41 28° NNW 22:22:02 10° NNE
Timation 2 Rocket 4.2 22:39:27 62° NW 22:39:27 62° NW 22:45:05 10° NNE
CZ-4C R/B 3.5 22:31:58 10° NNW 22:39:07 54° NE 22:41:11 44° E
CZ-3B R/B 4.3 22:37:37 10° NW 22:39:48 20° WNW 22:39:48 20° WNW
USA 267 3.2 22:41:19 10° NE 22:47:51 76° NW 22:48:10 74° WNW
Cosmos 2219 4.3 22:48:17 36° WNW 22:48:37 36° WNW 22:53:55 10° N
Cosmos 2082 4.3 23:01:12 53° NNW 23:01:12 53° NNW 23:05:56 10° NNE
Meteor 1-11 Rocket 4.4 23:05:19 50° NNW 23:05:19 50° NNW 23:09:33 10° N
Cosmos 2181 Rocket 4.2 23:07:21 10° N 23:12:46 68° N 23:12:46 68° N
Cosmos 2297 Rocket 4.2 23:13:12 17° WNW 23:14:55 20° NW 23:18:58 10° N
USA 234 3.7 23:18:03 44° E 23:19:55 59° NE 23:26:20 10° NW
Cosmos 2237 Rocket 4.5 23:21:01 10° WNW 23:22:23 14° WNW 23:22:23 14° WNW
Cosmos 2227 Rocket 4.1 23:26:37 19° WNW 23:27:52 20° NW 23:32:01 10° N
Cosmos 2263 Rocket 2.7 23:33:28 55° NNE 23:33:28 55° NNE 23:37:53 10° NNE
Cosmos 2344 3.4 23:34:40 72° ESE 23:34:40 72° ESE 23:42:07 10° NE
Cosmos 1603 4.3 23:36:36 10° NNW 23:41:32 54° NE 23:41:32 54° NE
ASTEX 1 4.4 23:46:47 43° N 23:46:47 43° N 23:50:10 10° N
